METEOSAT 9 (MSG 2)

导读

METEOSAT 9(又称MSG 2)是欧洲气象卫星开发组织(EUMETSAT)所属的第二代静止气象卫星(MSG)第二颗飞行单元,于2005年12月21日成功发射。卫星运行在赤道上方约3.6万公里地球静止轨道,发射质量2040千克,功率600瓦,核心任务为业务气象观测,同时对气候研究提供重要数据支撑。它可为欧洲部分区域、非洲及邻近海域提供每5分钟一次高频扫描成像服务,长期为该区域提供实时气象监测数据,在气象预报、灾害预警等领域发挥关键作用。

Basic Information
目录编号:
28912
目录名称:
METEOSAT 9 (MSG 2)
国际标识:
2005-049B
轨道中心:
EARTH
卫星名称:
METEOSAT 9 (MSG 2)
卫星全名:
--
卫星状态:
在轨 (已飞行7524 天)
发射日期:
2005-12-21 UTC
国别 :
(EUME)
星等 :
--
Orbit Information
数据来源 国际轨道数据 AOE轨道数据
星历时间 2026-07-28T12:24:29+0800
13小时前
查看轨道信息
2026-07-27T01:00:00+0800
2天前
查看轨道信息
半长轴 42162.738km 42162.99km
偏心率 0.000234 0.0002464
轨道倾角 9.450° 9.448°
近地点辐角 4.598° 2.313°
升交点赤经 53.754° 53.770°
平近点角 359.446° 189.103°
近地点 35774.734km 35774.464km
远地点 35794.468km 35795.242km
周期 1435.995分钟 1436.008分钟
每日圈数 1.002789 1.00278
Detailed Information
使用方式:
暂无
2D Orbit Map
3D Orbit Map
Orbit Altitude Analysis Chart
Orbit Inclination Analysis Chart
Orbit Comprehensive Analysis Chart
View Comprehensive Chart